sat.trackr.live / text

‹ back to catalog

STARLINK-31133

NORAD 58622 · 2023-203E

PAYLOAD ACTIVE UNKNOWN

§ Identity

Operator
Country
US
Launch date
2023-12-23
Launch site
AFETR
Launch vehicle
Mass (kg)
RCS (m²)

Purposes: comms

External: N2YO · Heavens-Above · Gunter

§ Orbital elements

Epoch: 2026-09-20T16:39:10.850112Z

Period
94.27 min
Inclination
43.0020°
Eccentricity
0.0001249
Mean motion
15.27576081 rev/d
Perigee alt
482.2 km
Apogee alt
483.9 km
Semi-major
6,861.2 km
B*
-4.5925e-6
RAAN
45.9068°
Arg perigee
276.8666°
Mean anomaly
83.2044°
Rev number
15,338

§ Raw data

STARLINK-311331 58622U 23203E   26263.69387558 -.00000388  00000+0 -45925-5 0  99932 58622  43.0020  45.9068 0001249 276.8666  83.2044 15.27576081153386

JSON: /api/v1/satellites/58622 · /tle

For live sub-satellite position, see the globe view (requires WebGL).

§ Visibility from observer

Set your observer location to see the next 7 days of passes ≥ 10°. The values pass through the URL so the page stays shareable.

No JS? Fill the form by hand. The geolocation button needs JavaScript.